Weather History for KSGS - June, 2013

Change the Weather History Date:

Saturday, June 8, 2013

  Actual Average (KMSP) Record (KMSP)
Temperature  
Mean Temperature 64 °F 66 °F  
Max Temperature 74 °F 77 °F 102 °F (1985)
Min Temperature 55 °F 56 °F 36 °F (1885)
Degree Days  
Heating Degree Days 0 2  
Month to date heating degree days 23  
Since 1 June heating degree days 23  
Since 1 July heating degree days 7559  
Cooling Degree Days 0 4  
Month to date cooling degree days 25  
Year to date cooling degree days 67  
Since 1 June cooling degree days 25  
Growing Degree Days 14 (Base 50)    
Moisture  
Dew Point 53 °F    
Average Humidity 63    
Maximum Humidity 89    
Minimum Humidity 43    
Precipitation  
Precipitation 0.00 in 0.14 in 2.12 in (1918)
Month to date precipitation 1.03  
Year to date precipitation 10.61  
Snow  
Snow 0.00 in 0.00 in 0.00 in ()
Month to date snowfall 0.0  
Since 1 June snowfall 0.0  
Since 1 July snowfall 54.4  
Snow Depth -    
Sea Level Pressure  
Sea Level Pressure 29.91 in    
Wind  
Wind Speed 2 mph (SE)    
Max Wind Speed 10 mph    
Max Gust Speed -    
Visibility 10 miles    
Events      
T = Trace of Precipitation, MM = Missing Value Source: NWS Daily Summary

Daily Weather History Graph

Daily Weather History Graph

Search for Another Location

Airport or City:

Trip Planner

Search our weather history database for the weather conditions in past years. The results will help you decide how hot, cold, wet, or windy it might be!

Date:

Astronomy

Jun. 08, 2013 Rise Set
Actual Time 5:26 AM CDT 8:56 PM CDT
Civil Twilight 4:49 AM CDT 9:33 PM CDT
Nautical Twilight 4:00 AM CDT 10:22 PM CDT
Astronomical Twilight 2:58 AM CDT 11:25 PM CDT
Moon 5:37 AM CDT (6/8) 8:56 PM CDT (6/8)
Length of Visible Light 16h 44m
Length of Day
15h 30m
New Moon, 0% of the Moon is Illuminated
Jun 8
New Moon
Jun 16
First Quarter
Jun 23
Full
Jun 29
Last Quarter
Jul 8
New

Hourly Weather History & Observations

Time (CDT) Temp. Dew Point Humidity Pressure Visibility Wind Dir Wind Speed Gust Speed Precip Events Conditions
12:14 AM 61.0 °F 52.2 °F 73% 29.92 in 10.0 mi Calm Calm - N/A   Scattered Clouds
12:34 AM 61.0 °F 52.3 °F 73% 29.92 in 10.0 mi Calm Calm - N/A   Clear
12:54 AM 60.8 °F 53.1 °F 76% 29.92 in 10.0 mi Calm Calm - N/A   Scattered Clouds
1:14 AM 59.9 °F 53.2 °F 79% 29.92 in 10.0 mi Calm Calm - N/A   Mostly Cloudy
1:34 AM 59.9 °F 53.6 °F 80% 29.92 in 10.0 mi Calm Calm - N/A   Overcast
1:54 AM 60.1 °F 52.7 °F 77% 29.92 in 10.0 mi Calm Calm - N/A   Scattered Clouds
2:14 AM 59.7 °F 52.3 °F 77% 29.92 in 10.0 mi Calm Calm - N/A   Clear
2:34 AM 59.0 °F 52.7 °F 80% 29.92 in 10.0 mi Calm Calm - N/A   Scattered Clouds
2:54 AM 59.9 °F 52.5 °F 77% 29.92 in 10.0 mi Calm Calm - N/A   Mostly Cloudy
3:14 AM 59.4 °F 52.7 °F 79% 29.92 in 10.0 mi Calm Calm - N/A   Mostly Cloudy
3:34 AM 59.4 °F 53.1 °F 80% 29.92 in 10.0 mi Calm Calm - N/A   Overcast
3:54 AM 59.4 °F 52.7 °F 79% 29.91 in 10.0 mi Calm Calm - N/A   Scattered Clouds
4:14 AM 59.0 °F 52.3 °F 79% 29.91 in 10.0 mi Calm Calm - N/A   Scattered Clouds
4:34 AM 59.0 °F 52.3 °F 79% 29.91 in 10.0 mi Calm Calm - N/A   Scattered Clouds
4:54 AM 58.3 °F 52.0 °F 80% 29.92 in 10.0 mi Calm Calm - N/A   Mostly Cloudy
5:14 AM 58.1 °F 52.7 °F 82% 29.92 in 10.0 mi Calm Calm - N/A   Mostly Cloudy
5:34 AM 57.4 °F 53.1 °F 85% 29.92 in 10.0 mi Calm Calm - N/A   Mostly Cloudy
5:54 AM 56.7 °F 52.2 °F 85% 29.91 in 10.0 mi Calm Calm - N/A   Scattered Clouds
6:14 AM 55.6 °F 52.2 °F 88% 29.92 in 7.0 mi Calm Calm - N/A   Scattered Clouds
6:34 AM 55.9 °F 52.9 °F 89% 29.92 in 10.0 mi Calm Calm - N/A   Scattered Clouds
6:54 AM 56.8 °F 53.4 °F 88% 29.91 in 10.0 mi Calm Calm - N/A   Clear
7:14 AM 59.0 °F 53.8 °F 83% 29.91 in 10.0 mi Calm Calm - N/A   Clear
7:34 AM 61.3 °F 53.1 °F 74% 29.92 in 10.0 mi Calm Calm - N/A   Clear
7:54 AM 62.8 °F 53.4 °F 71% 29.92 in 10.0 mi Calm Calm - N/A   Mostly Cloudy
8:14 AM 63.9 °F 53.4 °F 69% 29.92 in 10.0 mi SSE 3.5 mph - N/A   Scattered Clouds
8:34 AM 64.8 °F 53.1 °F 66% 29.93 in 10.0 mi SE 4.6 mph - N/A   Mostly Cloudy
8:54 AM 65.7 °F 53.2 °F 64% 29.92 in 10.0 mi SSE 4.6 mph - N/A   Scattered Clouds
9:14 AM 66.6 °F 53.6 °F 63% 29.93 in 10.0 mi Calm Calm - N/A   Clear
9:34 AM 67.3 °F 54.0 °F 62% 29.93 in 10.0 mi South 4.6 mph - N/A   Clear
9:54 AM 67.8 °F 53.4 °F 60% 29.93 in 10.0 mi South 4.6 mph - N/A   Clear
10:14 AM 68.4 °F 53.1 °F 58% 29.92 in 10.0 mi SSE 4.6 mph - N/A   Clear
10:34 AM 68.5 °F 52.2 °F 56% 29.93 in 10.0 mi SE 5.8 mph - N/A   Clear
10:54 AM 69.3 °F 51.8 °F 54% 29.92 in 10.0 mi SSE 6.9 mph - N/A   Clear
11:14 AM 69.1 °F 51.6 °F 54% 29.92 in 10.0 mi SSE 4.6 mph - N/A   Clear
11:34 AM 69.1 °F 50.9 °F 52% 29.92 in 10.0 mi SSE 4.6 mph - N/A   Clear
11:54 AM 69.8 °F 51.3 °F 52% 29.91 in 10.0 mi South 4.6 mph - N/A   Clear
12:14 PM 69.8 °F 51.1 °F 51% 29.91 in 10.0 mi SE 6.9 mph - N/A   Scattered Clouds
12:34 PM 70.2 °F 51.6 °F 52% 29.91 in 10.0 mi SSE 5.8 mph - N/A   Mostly Cloudy
12:54 PM 70.3 °F 52.2 °F 52% 29.91 in 10.0 mi SE 4.6 mph - N/A   Scattered Clouds
1:14 PM 70.9 °F 52.0 °F 51% 29.91 in 10.0 mi SE 5.8 mph - N/A   Scattered Clouds
1:34 PM 72.0 °F 51.8 °F 49% 29.91 in 10.0 mi SE 6.9 mph - N/A   Clear
1:54 PM 72.3 °F 51.4 °F 48% 29.91 in 10.0 mi SE 9.2 mph - N/A   Scattered Clouds
2:14 PM 72.1 °F 51.1 °F 47% 29.91 in 10.0 mi ESE 8.1 mph - N/A   Clear
2:34 PM 72.0 °F 52.0 °F 49% 29.90 in 10.0 mi SE 5.8 mph - N/A   Scattered Clouds
2:54 PM 71.8 °F 51.1 °F 48% 29.90 in 10.0 mi SSE 5.8 mph - N/A   Scattered Clouds
3:14 PM 71.6 °F 52.0 °F 50% 29.90 in 10.0 mi SSE 6.9 mph - N/A   Mostly Cloudy
3:34 PM 71.4 °F 52.5 °F 51% 29.90 in 10.0 mi SE 4.6 mph - N/A   Overcast
3:54 PM 73.4 °F 53.4 °F 49% 29.90 in 10.0 mi SE 5.8 mph - N/A   Scattered Clouds
4:14 PM 74.1 °F 51.6 °F 45% 29.90 in 10.0 mi SE 5.8 mph - N/A   Clear
4:34 PM 73.8 °F 50.0 °F 43% 29.90 in 10.0 mi South 8.1 mph - N/A   Clear
4:54 PM 73.8 °F 50.0 °F 43% 29.90 in 10.0 mi SSE 6.9 mph - N/A   Scattered Clouds
5:14 PM 73.4 °F 51.3 °F 46% 29.90 in 10.0 mi SSE 9.2 mph - N/A   Scattered Clouds
5:34 PM 72.7 °F 50.9 °F 46% 29.90 in 10.0 mi SSE 8.1 mph - N/A   Mostly Cloudy
5:54 PM 72.9 °F 51.3 °F 47% 29.90 in 10.0 mi South 8.1 mph - N/A   Mostly Cloudy
6:14 PM 72.1 °F 51.6 °F 48% 29.90 in 10.0 mi South 10.4 mph - N/A   Mostly Cloudy
6:34 PM 71.8 °F 51.4 °F 49% 29.90 in 10.0 mi SSE 5.8 mph - N/A   Mostly Cloudy
6:54 PM 71.6 °F 51.6 °F 49% 29.90 in 10.0 mi SSE 4.6 mph - N/A   Scattered Clouds
7:14 PM 71.2 °F 52.0 °F 51% 29.90 in 10.0 mi SSE 4.6 mph - N/A   Scattered Clouds
7:34 PM 71.1 °F 52.3 °F 52% 29.90 in 10.0 mi SSE 3.5 mph - N/A   Overcast
7:54 PM 70.7 °F 52.5 °F 52% 29.90 in 10.0 mi SSE 3.5 mph - N/A   Overcast
8:14 PM 70.2 °F 52.9 °F 54% 29.90 in 10.0 mi SSE 3.5 mph - N/A   Overcast
8:34 PM 69.8 °F 53.1 °F 55% 29.90 in 10.0 mi Calm Calm - N/A   Overcast
8:54 PM 69.3 °F 53.1 °F 56% 29.90 in 10.0 mi SE 3.5 mph - N/A   Mostly Cloudy
9:14 PM 69.1 °F 54.0 °F 58% 29.90 in 10.0 mi Calm Calm - N/A   Clear
9:34 PM 68.7 °F 56.3 °F 64% 29.90 in 10.0 mi ESE 8.1 mph - N/A   Clear
9:54 PM 68.2 °F 56.1 °F 65% 29.90 in 10.0 mi ESE 4.6 mph - N/A   Scattered Clouds
10:14 PM 68.0 °F 55.8 °F 65% 29.90 in 10.0 mi ESE 5.8 mph - N/A   Mostly Cloudy
10:34 PM 68.0 °F 55.4 °F 64% 29.91 in 10.0 mi SE 8.1 mph - N/A   Mostly Cloudy
10:54 PM 67.6 °F 55.4 °F 65% 29.91 in 10.0 mi ESE 6.9 mph - N/A   Mostly Cloudy
11:14 PM 67.3 °F 54.7 °F 64% 29.91 in 10.0 mi SE 5.8 mph - N/A   Scattered Clouds
11:34 PM 66.6 °F 54.5 °F 65% 29.91 in 10.0 mi ESE 5.8 mph - N/A   Clear
11:54 PM 66.4 °F 54.0 °F 64% 29.90 in 10.0 mi ESE 5.8 mph - N/A   Scattered Clouds